M I D A S
Marine Information and Data Acquisition System
Tripno 843 of the Zeeleeuw from 2005-01-28 07:43:36 to 2005-01-28 13:05:56
Back to CruiseResearch ActivitiesStationsMapUnderway DataData graphs

EquipmentUnitsComment
TimeDGPSUTC
LatitudeDGPSDM.mWGS84
LongitudeDGPSDM.mWGS84
TemperatureSBE03/SBE38deg celciusITS90
ConductivitySBE21S/mITS90
SalinitySBE21 Practical Salinity Units
ChlorophylAChelsea fluorimeterg/lCalibrated in Aceton
Missing or incorrect values are displayed as -999
Sea surface data collected by the RV Zeeleeuw from 2005-01-28 07:44:36 to 2005-01-28 13:14:41
Time Latitude Longitude Temperature Conductivity Salinity ChlorophylA
2005-01-28 07:45:41 51°13.606 2°56.054 12.7061 0.015052 0.078179 -0.882377
2005-01-28 07:46:40 51°13.576 2°56.111 12.5407 0.015052 0.078184 -0.848668
2005-01-28 07:47:41 51°13.54 2°56.176 12.703 0.015052 0.07819 -0.848668
2005-01-28 07:48:41 51°13.537 2°56.232 12.5656 0.015052 0.078198 -0.848668
2005-01-28 07:49:42 51°13.541 2°56.23 12.2906 0.015052 0.078192 -0.848668
2005-01-28 07:50:41 51°13.541 2°56.225 12.378 0.015052 0.078206 -0.882377
2005-01-28 07:51:42 51°13.539 2°56.225 12.5092 0.015052 0.078211 -0.882377
2005-01-28 07:52:41 51°13.52 2°56.249 12.5547 0.015052 0.078217 -0.882377
2005-01-28 07:53:40 51°13.522 2°56.244 12.5342 0.015052 0.078221 -0.848668
2005-01-28 07:54:41 51°13.53 2°56.232 12.5421 0.015052 0.078226 -0.848668
2005-01-28 07:55:41 51°13.536 2°56.214 12.5378 0.015052 0.078229 -0.848668
2005-01-28 07:56:40 51°13.54 2°56.193 12.5519 0.015052 0.078234 -0.882377
2005-01-28 07:57:41 51°13.547 2°56.157 12.5551 0.015052 0.078238 -0.848668
2005-01-28 07:58:41 51°13.563 2°56.108 12.5553 0.015052 0.078242 -0.882377
2005-01-28 07:59:41 51°13.589 2°56.043 12.5403 0.015052 0.078247 -0.882377
2005-01-28 08:00:40 51°13.627 2°55.963 12.5797 0.015052 0.078249 -0.882377
2005-01-28 08:01:41 51°13.672 2°55.859 12.5275 0.015052 0.078252 -0.882377
2005-01-28 08:02:41 51°13.733 2°55.731 12.4465 0.015052 0.078257 -0.848668
2005-01-28 08:03:41 51°13.83 2°55.628 12.58 0.015052 0.078259 -0.882377
2005-01-28 08:04:40 51°13.961 2°55.533 12.4289 0.015052 0.078261 -0.882377
2005-01-28 08:05:40 51°14.103 2°55.432 12.5186 0.015052 0.078262 -0.882377
2005-01-28 08:06:41 51°14.243 2°55.287 12.6053 0.015052 0.078263 -0.848668
2005-01-28 08:07:41 51°14.354 2°55.071 12.2687 0.015052 0.078262 -0.882377
2005-01-28 08:08:40 51°14.481 2°54.833 12.1773 0.015052 0.078259 -0.882377
2005-01-28 08:09:41 51°14.65 2°54.627 12.0482 0.015052 0.078262 -0.848668
2005-01-28 08:10:41 51°14.837 2°54.459 12.0307 0.015052 0.078266 -0.882377
2005-01-28 08:11:40 51°15.015 2°54.297 12.0451 0.015052 0.078262 -0.848668
2005-01-28 08:12:41 51°15.195 2°54.13 12.1061 0.015052 0.078271 -0.882377
2005-01-28 08:13:41 51°15.382 2°53.965 12.0793 0.015052 0.078271 -0.848668
2005-01-28 08:14:41 51°15.572 2°53.79 12.1216 0.015052 0.078272 -0.848668
2005-01-28 08:15:41 51°15.756 2°53.615 12.0804 0.015052 0.078273 -0.882377
2005-01-28 08:16:41 51°15.942 2°53.445 12.104 0.015052 0.078274 -0.882377
2005-01-28 08:17:41 51°16.133 2°53.3 12.1091 0.015052 0.078277 -0.882377
2005-01-28 08:18:41 51°16.327 2°53.148 12.1346 0.015052 0.078278 -0.848668
2005-01-28 08:19:41 51°16.518 2°52.999 12.1351 0.015052 0.07828 -0.848668
2005-01-28 08:20:41 51°16.711 2°52.853 12.1143 0.015052 0.07828 -0.848668
2005-01-28 08:21:41 51°16.9 2°52.71 12.1299 0.015052 0.078283 -0.848668
2005-01-28 08:22:41 51°17.078 2°52.545 12.1572 0.015052 0.078285 -0.848668
2005-01-28 08:23:41 51°17.249 2°52.365 12.181 0.015052 0.078289 -0.848668
2005-01-28 08:24:40 51°17.419 2°52.168 12.187 0.015052 0.078288 -0.882377
2005-01-28 08:25:41 51°17.581 2°51.95 12.1943 0.015052 0.078289 -0.848668
2005-01-28 08:26:41 51°17.72 2°51.69 12.207 0.015052 0.078294 -0.882377
2005-01-28 08:27:40 51°17.855 2°51.425 12.2334 0.015052 0.078293 -0.882377
2005-01-28 08:28:41 51°17.997 2°51.15 12.2417 0.015052 0.07829 -0.882377
2005-01-28 08:29:41 51°18.131 2°50.871 12.2582 0.015052 0.078296 -0.848668
2005-01-28 08:30:41 51°18.255 2°50.577 12.2651 0.015052 0.078293 -0.882377
2005-01-28 08:31:41 51°18.375 2°50.294 12.292 0.015052 0.078302 -0.882377
2005-01-28 08:32:41 51°18.498 2°50 12.3059 0.015052 0.078303 -0.882377
2005-01-28 08:33:40 51°18.62 2°49.717 12.3281 0.015052 0.078302 -0.882377
2005-01-28 08:34:41 51°18.746 2°49.433 12.3516 0.014948 0.077793 -0.848668
2005-01-28 08:35:41 51°18.871 2°49.147 12.3727 0.014948 0.077798 -0.882377
2005-01-28 08:36:41 51°19 2°48.858 12.3921 0.015052 0.078309 -0.848668
2005-01-28 08:37:41 51°19.123 2°48.574 12.4172 0.014948 0.077807 -0.882377
2005-01-28 08:38:41 51°19.245 2°48.29 12.4418 0.014948 0.077804 -0.848668
2005-01-28 08:39:41 51°19.37 2°47.996 12.4618 0.014948 0.077808 -0.848668
2005-01-28 08:40:41 51°19.493 2°47.707 12.4833 0.014948 0.077808 -0.882377
2005-01-28 08:41:41 51°19.602 2°47.387 12.5034 0.014948 0.077816 -0.848668
2005-01-28 08:42:41 51°19.682 2°47.05 12.5238 0.014948 0.077812 -0.882377
2005-01-28 08:43:41 51°19.763 2°46.708 12.5438 0.014948 0.077813 -0.848668
2005-01-28 08:44:41 51°19.842 2°46.371 12.5681 0.014948 0.077815 -0.848668
2005-01-28 08:45:41 51°19.924 2°46.033 12.5911 0.014948 0.077811 -0.848668
2005-01-28 08:46:40 51°20.007 2°45.697 12.6155 0.014948 0.077814 -0.882377
2005-01-28 08:47:41 51°20.091 2°45.353 12.6427 0.014948 0.077811 -0.848668
2005-01-28 08:48:40 51°20.163 2°45.013 12.6703 0.014948 0.077823 -0.848668
2005-01-28 08:49:41 51°20.196 2°44.635 12.6959 0.014948 0.077812 -0.848668
2005-01-28 08:50:41 51°20.225 2°44.254 12.72 0.014948 0.077824 -0.848668
2005-01-28 08:51:40 51°20.257 2°43.884 12.7437 0.014948 0.077817 -0.848668
2005-01-28 08:52:41 51°20.287 2°43.504 12.7706 0.014948 0.07783 -0.848668
2005-01-28 08:53:41 51°20.319 2°43.134 12.7916 0.014948 0.077825 -0.882377
2005-01-28 08:54:41 51°20.353 2°42.764 12.8195 0.014948 0.077851 -0.848668
2005-01-28 08:55:41 51°20.387 2°42.389 12.8448 0.014948 0.077849 -0.848668
2005-01-28 08:56:41 51°20.417 2°42.019 12.8707 0.014948 0.077851 -0.882377
2005-01-28 08:57:40 51°20.454 2°41.647 12.8968 0.014948 0.077856 -0.882377
2005-01-28 08:58:41 51°20.49 2°41.27 12.9146 0.014948 0.077857 -0.848668
2005-01-28 08:59:40 51°20.52 2°40.9 12.9427 0.014948 0.077854 -0.848668
2005-01-28 09:00:40 51°20.553 2°40.525 12.9679 0.014948 0.077866 -0.848668
2005-01-28 09:01:41 51°20.586 2°40.147 12.993 0.014948 0.077871 -0.848668
2005-01-28 09:02:41 51°20.619 2°39.773 13.0114 0.014948 0.077875 -0.848668
2005-01-28 09:03:40 51°20.652 2°39.405 13.0321 0.014948 0.077877 -0.814958
2005-01-28 09:04:41 51°20.679 2°39.032 13.0549 0.014948 0.077883 -0.882377
2005-01-28 09:05:40 51°20.712 2°38.661 13.077 0.014948 0.077887 -0.882377
2005-01-28 09:06:41 51°20.743 2°38.287 13.0979 0.014948 0.077892 -0.882377
2005-01-28 09:07:40 51°20.776 2°37.918 13.1194 0.015052 0.078409 -0.882377
2005-01-28 09:08:41 51°20.809 2°37.539 13.1445 0.014948 0.0779 -0.882377
2005-01-28 09:09:41 51°20.838 2°37.173 13.1702 0.014948 0.077874 -0.848668
2005-01-28 09:10:41 51°20.871 2°36.796 13.1903 0.014948 0.07791 -0.882377
2005-01-28 09:11:41 51°20.908 2°36.414 13.2084 0.014948 0.077914 -0.882377
2005-01-28 09:12:41 51°20.94 2°36.037 13.2343 0.014948 0.077913 -0.882377
2005-01-28 09:13:41 51°20.971 2°35.649 13.2527 0.014948 0.077921 -0.814958
2005-01-28 09:14:41 51°21.004 2°35.269 13.276 0.014948 0.077925 -0.848668
2005-01-28 09:15:41 51°21.034 2°34.884 13.2924 0.014948 0.077937 -0.882377
2005-01-28 09:16:41 51°21.065 2°34.499 13.3117 0.014948 0.077938 -0.848668
2005-01-28 09:17:41 51°21.097 2°34.113 13.3317 0.014948 0.077911 -0.882377
2005-01-28 09:18:40 51°21.127 2°33.737 13.3508 0.014948 0.077944 -0.848668
2005-01-28 09:19:41 51°21.231 2°33.429 13.3731 0.014948 0.077932 -0.882377
2005-01-28 09:20:41 51°21.41 2°33.318 13.3929 0.014948 0.077951 -0.882377
2005-01-28 09:21:41 51°21.592 2°33.257 13.4097 0.014948 0.077964 -0.848668
2005-01-28 09:22:40 51°21.778 2°33.2 13.4297 0.014948 0.07797 -0.848668
2005-01-28 09:23:40 51°21.97 2°33.14 13.4474 0.014948 0.077967 -0.848668
2005-01-28 09:24:41 51°22.16 2°33.074 13.4633 0.014948 0.077967 -0.848668
2005-01-28 09:25:40 51°22.341 2°33.009 13.4826 0.014948 0.077969 -0.848668
2005-01-28 09:26:41 51°22.534 2°32.941 13.4994 0.014948 0.07796 -0.848668
2005-01-28 09:27:41 51°22.678 2°32.729 13.5112 0.014948 0.077982 -0.848668
2005-01-28 09:28:41 51°22.729 2°32.365 13.5301 0.014948 0.077971 -0.848668
2005-01-28 09:29:41 51°22.707 2°31.979 13.5492 0.014948 0.077956 -0.848668
2005-01-28 09:30:40 51°22.682 2°31.591 13.571 0.014948 0.077953 -0.848668
2005-01-28 09:31:40 51°22.66 2°31.203 13.5936 0.014948 0.077982 -0.848668
2005-01-28 09:32:41 51°22.642 2°30.81 13.6151 0.014948 0.077964 -0.848668
2005-01-28 09:33:41 51°22.623 2°30.423 13.6381 0.014948 0.078 -0.882377
2005-01-28 09:34:41 51°22.608 2°30.033 13.6588 0.014948 0.07801 -0.848668
2005-01-28 09:35:41 51°22.591 2°29.64 13.6809 0.014948 0.078019 -0.882377
2005-01-28 09:36:41 51°22.564 2°29.251 13.7048 0.014948 0.078015 -0.882377
2005-01-28 09:37:41 51°22.531 2°28.856 13.7169 0.014948 0.078009 -0.848668
2005-01-28 09:38:41 51°22.498 2°28.455 6.9235 3.459272 26.564622 2.353725
2005-01-28 09:39:41 51°22.465 2°28.052 6.8306 3.443888 33.713023 0.600836
2005-01-28 09:40:41 51°22.446 2°27.654 6.8001 3.429353 33.737682 0.297452
2005-01-28 09:41:41 51°22.434 2°27.256 6.8706 3.426931 33.760294 0.297452
2005-01-28 09:42:41 51°22.435 2°26.864 6.9422 3.439571 33.833508 0.196324
2005-01-28 09:43:40 51°22.436 2°26.482 6.9775 3.447471 33.8648 0.297452
2005-01-28 09:44:41 51°22.472 2°26.105 6.9344 3.445154 33.840346 0.364871
2005-01-28 09:45:41 51°22.566 2°25.789 6.9439 3.451053 33.933085 0.432289
2005-01-28 09:46:41 51°22.706 2°25.542 6.9433 3.443258 33.85795 0.432289
2005-01-28 09:47:40 51°22.874 2°25.362 6.9649 3.457058 34.00454 0.39858
2005-01-28 09:48:41 51°23.058 2°25.246 6.991 3.456215 33.981948 0.465999
2005-01-28 09:49:41 51°23.242 2°25.223 7.0282 3.452106 33.91038 0.364871
2005-01-28 09:50:41 51°23.422 2°25.275 7.0599 3.46559 34.028291 0.39858
2005-01-28 09:51:40 51°23.595 2°25.316 7.0965 3.475071 34.101598 0.331161
2005-01-28 09:52:41 51°23.777 2°25.348 7.1331 3.478442 34.107398 0.263742
2005-01-28 09:53:40 51°23.959 2°25.376 7.1543 3.482339 34.11893 0.432289
2005-01-28 09:54:41 51°24.139 2°25.408 7.1679 3.486553 34.150599 0.499708
2005-01-28 09:55:40 51°24.31 2°25.429 7.1706 3.484657 34.115762 0.465999
2005-01-28 09:56:41 51°24.481 2°25.449 7.164 3.483287 34.103365 0.364871
2005-01-28 09:57:41 51°24.658 2°25.468 7.1639 3.489714 34.179985 0.39858
2005-01-28 09:58:41 51°24.827 2°25.503 7.1656 3.483393 34.112023 0.39858
2005-01-28 09:59:41 51°24.998 2°25.543 7.1732 3.490662 34.188633 0.364871
2005-01-28 10:00:40 51°25.17 2°25.579 7.2093 3.491399 34.187457 0.39858
2005-01-28 10:01:40 51°25.341 2°25.624 7.2265 3.497509 34.217131 0.331161
2005-01-28 10:02:41 51°25.518 2°25.669 7.2323 3.501618 34.248422 0.364871
2005-01-28 10:03:41 51°25.696 2°25.709 7.2273 3.497193 34.203664 0.39858
2005-01-28 10:04:40 51°25.875 2°25.762 7.2318 3.488449 34.109463 0.567127
2005-01-28 10:05:41 51°26.054 2°25.817 7.2453 3.500669 34.237278 0.567127
2005-01-28 10:06:41 51°26.231 2°25.873 7.2607 3.502039 34.238786 0.600836
2005-01-28 10:07:41 51°26.412 2°25.925 7.2766 3.504462 34.252575 0.567127
2005-01-28 10:08:41 51°26.578 2°25.985 7.2813 3.506463 34.260945 0.634546
2005-01-28 10:09:41 51°26.756 2°26.039 7.2887 3.509413 34.286294 0.634546
2005-01-28 10:10:40 51°26.934 2°26.094 7.2933 3.510888 34.296458 0.567127
2005-01-28 10:11:41 51°27.11 2°26.156 7.2988 3.510888 34.294785 0.499708
2005-01-28 10:12:41 51°27.286 2°26.213 7.3018 3.513522 34.317529 0.499708
2005-01-28 10:13:41 51°27.467 2°26.273 7.3083 3.507727 34.252115 0.533418
2005-01-28 10:14:41 51°27.643 2°26.333 7.3157 3.511836 34.29003 0.499708
2005-01-28 10:15:41 51°27.821 2°26.393 7.3229 3.511204 34.27565 0.465999
2005-01-28 10:16:41 51°27.997 2°26.456 7.3324 3.516366 34.324985 0.432289
2005-01-28 10:17:41 51°28.167 2°26.514 7.3597 3.519632 34.344533 0.364871
2005-01-28 10:18:40 51°28.341 2°26.572 7.3997 3.521949 34.339577 0.39858
2005-01-28 10:19:41 51°28.516 2°26.635 7.4205 3.529008 34.383486 0.331161
2005-01-28 10:20:41 51°28.693 2°26.693 7.4382 3.528481 34.35774 0.263742
2005-01-28 10:21:41 51°28.793 2°26.72 7.443 3.533538 34.391615 0.263742
2005-01-28 10:22:41 51°28.79 2°26.711 7.4476 3.533116 34.389558 0.230033
2005-01-28 10:23:41 51°28.76 2°26.696 7.4497 3.531852 34.372538 0.196324
2005-01-28 10:24:41 51°28.724 2°26.671 7.4497 3.535223 34.405684 0.230033
2005-01-28 10:25:41 51°28.689 2°26.645 7.4525 3.534696 34.401653 0.364871
2005-01-28 10:26:41 51°28.654 2°26.62 7.452 3.53122 34.366532 0.263742
2005-01-28 10:27:41 51°28.617 2°26.597 7.4617 3.534064 34.392308 0.331161
2005-01-28 10:28:40 51°28.581 2°26.581 7.4589 3.533854 34.387524 0.364871
2005-01-28 10:29:41 51°28.559 2°26.627 7.4536 3.531325 34.362668 0.331161
2005-01-28 10:30:41 51°28.602 2°26.653 7.4506 3.535539 34.410774 0.39858
2005-01-28 10:31:41 51°28.735 2°26.571 7.468 3.535961 34.410324 0.364871
2005-01-28 10:32:41 51°28.906 2°26.488 7.4459 3.533853 34.370844 0.39858
2005-01-28 10:33:41 51°29.08 2°26.409 7.4024 3.529429 34.350486 0.465999
2005-01-28 10:34:41 51°29.252 2°26.337 7.3753 3.522686 34.321688 0.668255
2005-01-28 10:35:40 51°29.426 2°26.261 7.3304 3.516471 34.288539 0.567127
2005-01-28 10:36:41 51°29.606 2°26.184 7.2936 3.511309 34.270948 0.533418
2005-01-28 10:37:41 51°29.772 2°26.106 7.2576 3.511204 34.301563 0.465999
2005-01-28 10:38:41 51°29.952 2°26.027 7.2333 3.50678 34.284452 0.499708
2005-01-28 10:39:41 51°30.131 2°25.949 7.2299 3.497825 34.2097 0.499708
2005-01-28 10:40:41 51°30.308 2°25.873 7.2166 3.500354 34.250575 0.567127
2005-01-28 10:41:41 51°30.467 2°25.794 7.2267 3.498141 34.22735 0.465999
2005-01-28 10:42:41 51°30.641 2°25.71 7.2451 3.499827 34.239825 0.465999
2005-01-28 10:43:41 51°30.81 2°25.626 7.2743 3.500564 34.223593 0.39858
2005-01-28 10:44:41 51°30.983 2°25.543 7.3174 3.501406 34.203524 0.432289
2005-01-28 10:45:41 51°31.159 2°25.464 7.3646 3.513205 34.284842 0.364871
2005-01-28 10:46:42 51°31.335 2°25.381 7.3987 3.516049 34.262295 0.364871
2005-01-28 10:47:41 51°31.487 2°25.305 7.3911 3.526058 34.354035 0.701965
2005-01-28 10:48:41 51°31.665 2°25.225 7.4015 3.518578 34.279685 0.533418
2005-01-28 10:49:41 51°31.848 2°25.164 7.4343 3.52216 34.310144 0.600836
2005-01-28 10:50:41 51°32.027 2°25.135 7.4785 3.526163 34.309316 0.465999
2005-01-28 10:51:41 51°32.197 2°25.208 7.5287 3.53575 34.372181 0.39858
2005-01-28 10:52:41 51°32.323 2°25.399 7.5374 3.53596 34.33784 0.465999
2005-01-28 10:53:41 51°32.44 2°25.614 7.5298 3.543967 34.418484 0.465999
2005-01-28 10:54:41 51°32.559 2°25.846 7.5089 3.541649 34.406778 0.364871
2005-01-28 10:55:41 51°32.674 2°26.085 7.5029 3.532483 34.321905 0.499708
2005-01-28 10:56:41 51°32.773 2°26.332 7.4807 3.536382 34.377348 0.499708
2005-01-28 10:57:41 51°32.846 2°26.612 7.4661 3.536909 34.396381 0.634546
2005-01-28 10:58:41 51°32.883 2°26.918 7.4536 3.534907 34.387242 0.600836
2005-01-28 10:59:40 51°32.923 2°27.22 7.4351 3.532379 34.374902 0.533418
2005-01-28 11:00:41 51°32.974 2°27.524 7.4377 3.531325 34.379354 0.499708
2005-01-28 11:01:41 51°33.023 2°27.825 7.4339 3.52985 34.360885 0.567127
2005-01-28 11:02:40 51°33.073 2°28.12 7.4244 3.528165 34.347644 0.533418
2005-01-28 11:03:41 51°33.123 2°28.423 7.4074 3.525215 34.330721 0.735674
2005-01-28 11:04:41 51°33.166 2°28.727 7.4004 3.524899 34.336474 0.533418
2005-01-28 11:05:41 51°33.204 2°29.03 7.3706 3.52237 34.323271 0.634546
2005-01-28 11:06:41 51°33.242 2°29.337 7.3653 3.519105 34.315422 0.600836
2005-01-28 11:07:41 51°33.28 2°29.643 7.3069 3.515839 34.302555 0.634546
2005-01-28 11:08:41 51°33.313 2°29.939 7.2442 3.506885 34.257164 0.432289
2005-01-28 11:09:41 51°33.358 2°30.242 7.1502 3.499195 34.243829 0.465999
2005-01-28 11:10:41 51°33.4 2°30.549 7.101 3.486764 34.184691 0.432289
2005-01-28 11:11:41 51°33.441 2°30.851 7.0843 3.481076 34.164572 0.533418
2005-01-28 11:12:41 51°33.478 2°31.152 7.065 3.478021 34.148848 0.634546
2005-01-28 11:13:41 51°33.52 2°31.457 7.063 3.475282 34.139918 0.533418
2005-01-28 11:14:41 51°33.523 2°31.774 7.0747 3.478021 34.164784 0.567127
2005-01-28 11:15:41 51°33.401 2°32.052 7.0679 3.473913 34.109049 0.668255
2005-01-28 11:16:41 51°33.198 2°32.227 7.0553 3.473913 34.109886 0.600836
2005-01-28 11:17:41 51°32.968 2°32.307 7.0766 3.468961 34.019121 0.634546
2005-01-28 11:18:41 51°32.725 2°32.361 7.1373 3.472649 34.124582 0.735674
2005-01-28 11:19:41 51°32.49 2°32.427 7.0363 3.46854 34.071351 0.39858
2005-01-28 11:20:41 51°32.254 2°32.489 6.9926 3.469278 34.102022 0.465999
2005-01-28 11:21:41 51°32.016 2°32.559 6.984 3.467909 34.122302 0.465999
2005-01-28 11:22:41 51°31.779 2°32.631 6.9674 3.462536 34.075313 0.499708
2005-01-28 11:23:41 51°31.542 2°32.704 6.9579 3.464538 34.108957 0.331161
2005-01-28 11:24:41 51°31.31 2°32.782 6.9478 3.456743 34.043824 0.465999
2005-01-28 11:25:41 51°31.076 2°32.862 6.955 3.462326 34.095677 0.533418
2005-01-28 11:26:41 51°30.844 2°32.951 6.9341 3.461799 34.100838 0.600836
2005-01-28 11:27:41 51°30.611 2°33.035 6.9485 3.460219 34.090266 0.668255
2005-01-28 11:28:41 51°30.375 2°33.104 6.9077 3.458323 34.068671 0.465999
2005-01-28 11:29:41 51°30.145 2°33.19 6.9154 3.457375 34.070054 0.432289
2005-01-28 11:30:41 51°29.919 2°33.277 6.9055 3.452002 33.982748 0.499708
2005-01-28 11:31:40 51°29.703 2°33.404 6.9186 3.456743 34.079945 0.39858
2005-01-28 11:32:41 51°29.496 2°33.594 7.0277 3.387008 33.293527 0.364871
2005-01-28 11:33:41 51°29.307 2°33.795 6.9513 3.450738 33.963902 0.364871
2005-01-28 11:34:41 51°29.112 2°34.001 6.9934 3.455373 33.995326 0.297452
2005-01-28 11:35:41 51°28.921 2°34.223 7.0024 3.450105 33.936927 0.162614
2005-01-28 11:36:41 51°28.739 2°34.451 7.0384 3.467066 34.086241 0.263742
2005-01-28 11:37:41 51°28.556 2°34.677 7.0715 3.474018 34.133665 0.162614
2005-01-28 11:38:41 51°28.37 2°34.908 7.0064 3.480128 34.173516 0.061486
2005-01-28 11:39:40 51°28.191 2°35.133 6.9633 3.458428 34.016994 0.027777
2005-01-28 11:40:41 51°28.008 2°35.358 6.9185 3.459376 34.05921 0.230033
2005-01-28 11:41:41 51°27.825 2°35.584 6.9153 3.456848 34.067649 0.196324
2005-01-28 11:42:41 51°27.643 2°35.806 6.9023 3.445155 33.956406 0.297452
2005-01-28 11:43:41 51°27.46 2°36.028 6.8753 3.448421 34.001392 0.230033
2005-01-28 11:44:41 51°27.283 2°36.255 6.8686 3.442206 33.945895 0.331161
2005-01-28 11:45:41 51°27.102 2°36.496 6.8199 3.434938 33.89307 0.297452
2005-01-28 11:46:41 51°26.926 2°36.737 6.8315 3.439257 33.973998 0.128905
2005-01-28 11:47:41 51°26.746 2°36.972 6.8122 3.436097 33.933448 0.196324
2005-01-28 11:48:41 51°26.573 2°37.212 6.7978 3.434095 33.929961 0.162614
2005-01-28 11:49:41 51°26.403 2°37.449 6.7852 3.423878 33.834604 0.230033
2005-01-28 11:50:41 51°26.235 2°37.687 6.7508 3.423035 33.851345 0.263742
2005-01-28 11:51:41 51°26.073 2°37.949 6.7144 3.417558 33.818017 0.364871
2005-01-28 11:52:41 51°25.912 2°38.212 6.7132 3.416189 33.818071 0.297452
2005-01-28 11:53:41 51°25.755 2°38.473 6.7461 3.408288 33.732077 0.230033
2005-01-28 11:54:41 51°25.619 2°38.761 6.8098 3.419138 33.821957 0.230033
2005-01-28 11:55:41 51°25.479 2°39.037 6.6628 3.415029 33.775158 0.162614
2005-01-28 11:56:41 51°25.348 2°39.32 6.64 3.404286 33.75428 0.061486
2005-01-28 11:57:41 51°25.219 2°39.61 6.5613 3.387854 33.613576 0.162614
2005-01-28 11:58:41 51°25.088 2°39.894 6.5365 3.372792 33.489436 0.196324
2005-01-28 11:59:41 51°24.948 2°40.166 6.5124 3.366157 33.444674 0.162614
2005-01-28 12:00:41 51°24.796 2°40.436 6.499 3.367316 33.492559 0.331161
2005-01-28 12:01:41 51°24.652 2°40.706 6.3715 3.35236 33.378391 0.499708
2005-01-28 12:02:41 51°24.504 2°40.974 6.3653 3.336245 33.282054 0.701965
2005-01-28 12:03:41 51°24.351 2°41.241 6.3282 3.3215 33.125571 0.904221
2005-01-28 12:04:41 51°24.198 2°41.512 6.3248 3.321711 33.172027 0.668255
2005-01-28 12:05:42 51°24.04 2°41.776 6.2646 3.321711 33.177864 0.567127
2005-01-28 12:06:41 51°23.888 2°42.037 6.2985 3.309283 33.047694 0.567127
2005-01-28 12:07:42 51°23.733 2°42.313 6.2855 3.314655 33.148031 0.567127
2005-01-28 12:08:41 51°23.583 2°42.584 6.2527 3.310021 33.103304 0.634546
2005-01-28 12:09:41 51°23.428 2°42.851 6.1925 3.304966 33.06306 0.735674
2005-01-28 12:10:41 51°23.23 2°43.01 6.1628 3.300964 32.996219 0.836802
2005-01-28 12:11:41 51°23 2°43.025 6.0718 3.296541 33.048714 0.701965
2005-01-28 12:12:41 51°22.768 2°43.044 6.019 3.27927 32.939163 0.533418
2005-01-28 12:13:41 51°22.537 2°43.068 5.9409 3.278428 32.979903 0.533418
2005-01-28 12:14:42 51°22.302 2°43.094 5.8779 3.262527 32.893585 0.567127
2005-01-28 12:15:41 51°22.068 2°43.12 5.8596 3.259368 32.89511 0.600836
2005-01-28 12:16:41 51°21.839 2°43.159 5.8236 3.253155 32.857424 0.634546
2005-01-28 12:17:41 51°21.609 2°43.218 5.897 3.245993 32.775603 0.701965
2005-01-28 12:18:42 51°21.371 2°43.277 5.8246 3.251574 32.804607 0.735674
2005-01-28 12:19:42 51°21.168 2°43.46 5.8873 3.250206 32.842845 0.701965
2005-01-28 12:20:41 51°20.978 2°43.676 5.8658 3.252417 32.83159 0.93793
2005-01-28 12:21:41 51°20.8 2°43.916 5.8579 3.254839 32.844459 0.97164
2005-01-28 12:22:40 51°20.651 2°44.186 5.8828 3.243886 32.665419 0.836802
2005-01-28 12:23:41 51°20.529 2°44.501 5.8499 3.2501 32.807343 0.701965
2005-01-28 12:24:41 51°20.41 2°44.808 5.7899 3.2382 32.681752 0.769383
2005-01-28 12:25:41 51°20.292 2°45.109 5.7574 3.234621 32.712607 0.600836
2005-01-28 12:26:41 51°20.176 2°45.423 5.6583 3.228303 32.69696 0.904221
2005-01-28 12:27:41 51°20.066 2°45.734 5.6752 3.214824 32.607522 0.904221
2005-01-28 12:28:41 51°19.952 2°46.043 5.5604 3.208296 32.571774 0.803093
2005-01-28 12:29:41 51°19.837 2°46.356 5.4698 3.211771 32.665393 1.241315
2005-01-28 12:30:42 51°19.713 2°46.669 5.4289 3.189659 32.489108 1.072768
2005-01-28 12:31:41 51°19.597 2°46.976 5.3351 3.181972 32.469411 1.039059
2005-01-28 12:32:40 51°19.485 2°47.278 5.342 3.17397 32.41419 0.735674
2005-01-28 12:33:41 51°19.362 2°47.586 5.2932 3.17039 32.405577 0.803093
2005-01-28 12:34:41 51°19.25 2°47.89 5.2958 3.157018 32.293605 0.735674
2005-01-28 12:35:41 51°19.134 2°48.202 5.301 3.155649 32.272245 0.836802
2005-01-28 12:36:42 51°19.023 2°48.521 5.3452 3.159334 32.305593 0.769383
2005-01-28 12:37:41 51°18.916 2°48.837 5.2903 3.140382 32.1545 0.769383
2005-01-28 12:38:41 51°18.809 2°49.159 5.1992 3.139014 32.159041 1.173896
2005-01-28 12:39:41 51°18.707 2°49.486 5.1888 3.137644 32.081807 1.140187
2005-01-28 12:40:41 51°18.6 2°49.823 5.1439 3.114692 31.928243 1.173896
2005-01-28 12:41:41 51°18.493 2°50.148 5.151 3.104374 31.834455 1.140187
2005-01-28 12:42:41 51°18.387 2°50.475 5.1355 3.118799 31.984812 1.409862
2005-01-28 12:43:41 51°18.278 2°50.801 5.1413 3.115219 31.971673 1.376153
2005-01-28 12:44:41 51°18.17 2°51.122 5.1615 3.120273 32.023224 1.342443
2005-01-28 12:45:41 51°18.063 2°51.448 5.1383 3.125853 32.065709 1.443571
2005-01-28 12:46:42 51°17.957 2°51.771 5.225 3.121115 32.021105 1.308734
2005-01-28 12:47:41 51°17.775 2°51.982 5.1571 3.114587 31.927049 1.241315
2005-01-28 12:48:40 51°17.572 2°52.125 5.0975 3.10806 31.917845 1.443571
2005-01-28 12:49:41 51°17.361 2°52.284 5.0935 3.102269 31.86204 1.51099
2005-01-28 12:50:40 51°17.163 2°52.466 5.0703 3.099216 31.835661 1.5447
2005-01-28 12:51:41 51°16.954 2°52.639 5.0621 3.094899 31.755943 1.949212
2005-01-28 12:52:41 51°16.75 2°52.797 5.0539 3.08932 31.729859 1.780665
2005-01-28 12:53:41 51°16.543 2°52.954 5.0135 3.086477 31.7332 1.746956
2005-01-28 12:54:41 51°16.339 2°53.101 4.9965 3.080371 31.704389 1.848084
2005-01-28 12:55:41 51°16.132 2°53.25 4.9825 3.077318 31.659692 1.679537
2005-01-28 12:56:41 51°15.925 2°53.396 4.9797 3.070896 31.604005 1.645828
2005-01-28 12:57:41 51°15.722 2°53.541 4.9666 3.062685 31.530387 1.578409
2005-01-28 12:58:41 51°15.519 2°53.691 4.9489 3.061737 31.536129 1.409862
2005-01-28 12:59:41 51°15.315 2°53.843 4.9539 3.060158 31.528891 1.376153
2005-01-28 13:00:41 51°15.112 2°53.985 4.946 3.068159 31.612592 1.409862
2005-01-28 13:01:41 51°14.923 2°54.15 4.9251 3.059527 31.521696 1.342443
2005-01-28 13:02:41 51°14.744 2°54.358 5.1856 3.054684 31.48801 -0.814958
2005-01-28 13:03:40 51°14.586 2°54.595 5.3779 3.055421 31.494755 -0.882377
2005-01-28 13:04:41 51°14.451 2°54.877 5.5403 3.055526 31.492649 -0.882377
2005-01-28 13:05:40 51°14.322 2°55.13 5.6791 3.055842 31.473948 -0.882377
2005-01-28 13:06:40 51°14.21 2°55.338 5.821 3.056368 31.457672 -0.882377
2005-01-28 13:07:40 51°14.082 2°55.454 5.9855 3.057631 31.44486 -0.916087
2005-01-28 13:08:41 51°13.947 2°55.551 6.1324 3.060052 31.439475 -0.882377
2005-01-28 13:09:41 51°13.819 2°55.649 6.2193 3.063736 31.442695 -0.916087
2005-01-28 13:10:41 51°13.725 2°55.768 6.3324 3.068052 31.454719 -0.882377
2005-01-28 13:11:40 51°13.664 2°55.897 6.5139 3.073211 31.470528 -0.882377
2005-01-28 13:12:40 51°13.624 2°56.007 6.6122 3.078369 31.487132 -0.882377
2005-01-28 13:13:41 51°13.598 2°56.092 6.7973 3.083422 31.504976 -0.916087